PST,Max TemperatureF,Mean TemperatureF,Min TemperatureF,Max Dew PointF,MeanDew PointF,Min DewpointF,Max Humidity, Mean Humidity, Min Humidity, Max Sea Level PressureIn, Mean Sea Level PressureIn, Min Sea Level PressureIn, Max VisibilityMiles, Mean VisibilityMiles, Min VisibilityMiles, Max Wind SpeedMPH, Mean Wind SpeedMPH, Max Gust SpeedMPH,PrecipitationIn, CloudCover, Events, WindDirDegrees
2012-11-1,78,66,54,34,29,23,45,28,13,30.00,29.94,29.87,10,10,10,14,4,,0.00,0,,72
2012-11-2,77,63,51,29,25,20,41,24,12,30.04,29.98,29.94,10,10,10,10,4,,0.00,0,,313
2012-11-3,78,64,51,31,25,20,41,24,12,30.15,30.10,30.02,10,10,10,14,3,,0.00,0,,320
2012-11-4,79,66,54,30,25,22,37,21,13,30.27,30.20,30.16,10,10,10,13,4,,0.00,0,,334
2012-11-5,82,70,57,37,30,26,35,24,14,30.27,30.19,30.13,10,10,10,12,4,,0.00,0,,356
2012-11-6,81,69,57,37,33,28,44,30,15,30.22,30.13,30.06,10,10,10,9,3,,0.00,0,,306
2012-11-7,78,66,53,39,35,31,50,34,18,30.09,29.99,29.86,10,10,10,6,3,,0.00,0,,324
2012-11-8,75,65,55,48,36,27,54,34,16,29.84,29.75,29.67,10,10,10,22,9,29,0.00,1,,201
2012-11-9,62,53,44,46,28,5,60,38,12,29.82,29.71,29.66,10,10,10,25,15,39,0.00,1,,252
2012-11-10,51,46,41,28,22,16,56,39,25,30.17,29.99,29.83,10,10,10,15,10,21,0.00,1,,311
2012-11-11,53,46,39,18,15,10,41,30,19,30.49,30.37,30.20,10,10,10,20,11,24,0.00,0,,352
2012-11-12,59,48,36,18,12,4,48,27,11,30.49,30.40,30.30,10,10,10,10,3,,0.00,0,,324
2012-11-13,64,52,39,20,12,6,37,23,10,30.35,30.28,30.20,10,10,10,9,5,,0.00,0,,315
2012-11-14,64,52,41,28,20,15,45,31,15,30.27,30.20,30.14,10,10,10,8,3,,0.00,0,,306
2012-11-15,64,54,45,27,23,16,48,32,16,30.24,30.17,30.12,10,10,10,6,1,,0.00,0,,282
2012-11-16,64,56,48,28,24,20,44,30,19,30.15,30.09,30.04,10,10,10,6,2,,0.00,5,,304
2012-11-17,70,60,50,42,36,29,50,41,32,30.09,30.03,29.95,10,10,10,15,4,20,0.00,2,,219
2012-11-18,69,60,52,44,39,33,66,45,26,30.15,30.05,29.99,10,10,10,20,12,25,0.00,0,,211
2012-11-19,68,57,46,39,38,36,68,51,33,30.29,30.23,30.16,10,10,10,8,4,,0.00,0,,356
2012-11-20,68,57,46,38,36,35,68,50,30,30.26,30.17,30.09,10,10,10,8,4,,0.00,0,,358
2012-11-21,69,57,45,36,34,31,68,46,24,30.13,30.08,30.02,10,10,10,12,4,,0.00,0,,310
2012-11-22,70,58,46,34,31,28,56,35,22,30.29,30.20,30.09,10,10,10,12,5,,0.00,0,,352
2012-11-23,71,60,50,29,26,23,43,31,16,30.38,30.30,30.22,10,10,10,8,4,,0.00,0,,309
2012-11-24,70,58,45,31,26,21,49,33,16,30.27,30.16,30.04,10,10,10,8,4,,0.00,0,,308
2012-11-25,68,56,43,28,25,21,56,35,17,30.06,30.00,29.92,10,10,10,7,3,,0.00,0,,313
2012-11-26,68,56,44,28,24,19,51,33,15,30.21,30.13,30.01,10,10,10,9,3,,0.00,0,,295
2012-11-27,64,53,42,30,26,21,55,36,19,30.30,30.22,30.17,10,10,10,7,3,,0.00,0,,315
2012-11-28,68,56,43,28,26,23,53,33,18,30.21,30.13,30.06,10,10,10,16,4,21,0.00,0,,222
2012-11-29,71,66,61,45,41,34,52,42,32,30.14,30.07,30.03,10,10,10,23,16,30,0.00,0,,210
2012-11-30,69,64,60,46,44,40,58,47,40,30.04,30.00,29.95,10,10,9,39,18,43,0.00,0,,194